Regional Weather Roundup
Issued by NWS

Home | Current Version | Previous Version | Text Only | Print | Product List | Glossary Off
Versions: 1 2 3 4 5 6 7 8 9 10 11 12 13 14 15 16 17 18 19 20 21 22 23 24 25 26 27 28 29 30 31 32 33 34 35 36 37 38 39 40 41 42 43 44 45 46 47 48 49 50

000
ASUS44 KMEG 251310
RWRTN
TENNESSEE HOURLY STATE WEATHER ROUNDUP
NATIONAL WEATHER SERVICE MEMPHIS TN
800 AM CDT SUN JUN 25 2017

TNZ002-004-019-021-049-052-054-088>092-251400-
WEST TENNESSEE

CITY           SKY/WX    TMP DP  RH WIND       PRES   REMARKS
MEMPHIS INTL   CLOUDY    74  58  57 CALM      30.24R
NWS MEMPHIS      N/A     71 N/A N/A MISG        N/A
JACKSON        CLOUDY    69  59  70 CALM      30.23R
COVINGTON      SUNNY     70  61  73 CALM      30.23R
UNION CITY     SUNNY     68  63  83 CALM      30.23R
BOLIVAR        SUNNY     68  61  77 CALM      30.22R
PARIS          SUNNY     68  61  77 CALM      30.22R
HUNTINGDON     SUNNY     70  57  64 CALM      30.22S
LEXINGTON      SUNNY     68  61  77 CALM      30.23R
SELMER         SUNNY     68  59  73 CALM      30.22S
SAVANNAH       SUNNY     68  63  83 CALM      30.22R
$$

TNZ008-025-027-028-033-062-065-066-251400-
NORTH MIDDLE TENNESSEE

CITY           SKY/WX    TMP DP  RH WIND       PRES   REMARKS
NASHVILLE      MOSUNNY   70  55  59 NW7       30.23R
PORTLAND       SUNNY     66  57  72 CALM      30.22S
CLARKSVILLE    SUNNY     66  58  75 CALM      30.22R
SMYRNA         SUNNY     68  60  75 N6        30.24R
COOKEVILLE     SUNNY     63  61  94 CALM      30.22S
GALLATIN       SUNNY     68  59  73 CALM      30.25R
CROSSVILLE     PTSUNNY   61  55  81 N5        30.25R
$$

TNZ061-075-076-078-094-096-097-251400-
SOUTH MIDDLE TENNESSEE

CITY           SKY/WX    TMP DP  RH WIND       PRES   REMARKS
FAYETTEVILLE   SUNNY     64  59  82 CALM      30.22R
TULLAHOMA      SUNNY     64  55  72 NE5       30.22S
WINCHESTER     SUNNY     63  61  94 CALM        N/A
MCMINNVILLE    SUNNY     64  63  94 CALM      30.23R
COLUMBIA       SUNNY     66  59  77 CALM      30.21R
SHELBYVILLE    SUNNY     66  59  77 NE3       30.21S
$$

TNZ017-018-042-046-047-251400-
NORTHEAST TENNESSEE

CITY           SKY/WX    TMP DP  RH WIND       PRES   REMARKS
TRI CITIES     CLOUDY    68  62  81 CALM      30.19R
ELIZABETHTON   CLOUDY    68  59  73 CALM      30.19R
$$

TNZ012-013-036-069-073-074-251400-
CENTRAL EAST TENNESSEE

CITY           SKY/WX    TMP DP  RH WIND       PRES   REMARKS
KNOXVILLE      CLOUDY    67  56  67 N3        30.19R
OAK RIDGE      CLOUDY    68  59  73 CALM      30.22R
DOWNTOWN KNOXV SUNNY     70  61  73 CALM      30.19S
GATLINBURG     PTSUNNY   68  59  73 SW3       30.20R
MORRISTOWN     PTSUNNY   70  59  68 N6        30.20R
JACKSBORO      SUNNY     68  57  68 CALM      30.25R
$$

TNZ083-085-099-251400-
SOUTHEAST TENNESSEE

CITY           SKY/WX    TMP DP  RH WIND       PRES   REMARKS
CHATTANOOGA    CLOUDY    69  56  62 N7        30.19S
$$

SKY/WX REPORTED AS FAIR MEANS FEW OR NO CLOUDS BELOW
12 THOUSAND FEET.





USA.gov is the U.S. government's official web portal to all federal, state and local government web resources and services.